This demonstration page uses our WeatherBlox Daily Observations layout. Learn more.

Left ArrowRight Arrow

39.01783, -85.05884

Hourly Observations for June 23, 2017

Temp ( °F °C ) Dew Point ( °F °C ) Humidity (%) Winds ( mph kmh ) Pressure ( in mb ) Visibility ( mi km ) Precip ( " mm )
12:06 am 00:06 Cloudy with Light Rain 70 21.1 69 20.6 97 97 S 9 15 29.85 1011 6 10 0.01 0.25
12:52 am 00:52 Cloudy 71 21.7 70 21.1 96 96 S 9 15 29.83 1010 10 16 0.01 0.25
1:52 am 01:52 Cloudy 72 22.2 71 21.7 97 97 SSW 9 15 29.81 1010 10 16 N/A
2:52 am 02:52 Cloudy 72 22.2 71 21.7 97 97 SSW 13 20 29.78 1009 10 16 N/A
3:52 am 03:52 Cloudy 73 22.8 72 22.2 96 96 S 12 19 29.76 1008 10 16 N/A
4:52 am 04:52 Cloudy 73 22.8 72 22.2 96 96 SSW 12 19 29.75 1008 10 16 N/A
5:22 am 05:22 Cloudy 73 22.8 72 22.2 96 96 SSW 9 15 29.74 1007 10 16 N/A
5:52 am 05:52 Cloudy 74 23.3 72 22.2 94 94 SSW 10 17 29.75 1008 10 16 N/A
6:22 am 06:22 Cloudy 73 22.8 72 22.2 96 96 SSW 6 9 29.74 1007 9 14 N/A
6:52 am 06:52 Cloudy with Light Rain 74 23.3 72 22.2 94 94 SSW 9 15 29.74 1007 3 5 0.01 0.25
7:52 am 07:52 Cloudy 74 23.3 73 22.8 97 97 SSW 13 20 29.74 1007 10 16 0.01 0.25
8:43 am 08:43 Cloudy with Light Rain 75 23.9 73 22.8 94 94 SSW 13 20 29.74 1007 7 11 N/A
8:52 am 08:52 Cloudy 74 23.3 73 22.8 97 97 SSW 13 20 29.74 1007 7 11 N/A
9:43 am 09:43 Cloudy 77 25 73 22.8 88 88 SSW 14 22 29.71 1006 10 16 N/A
9:52 am 09:52 Cloudy 77 25 73 22.8 88 88 SW 17 28 29.73 1007 10 16 N/A
10:52 am 10:52 Cloudy 78 25.6 72 22.2 82 82 SW 14 22 29.73 1007 10 16 N/A
11:52 am 11:52 Cloudy 81 27.2 72 22.2 74 74 SW 9 15 29.72 1006 10 16 N/A
12:52 pm 12:52 Cloudy 81 27.2 71 21.7 72 72 SW 16 26 29.70 1006 10 16 N/A
1:23 pm 13:23 Cloudy with Heavy Rain 75 23.9 73 22.8 94 94 W 8 13 29.71 1006 1 1 0.08 2.03
1:36 pm 13:36 Cloudy with Light Rain 75 23.9 73 22.8 94 94 W 14 22 29.71 1006 6 10 0.16 4.06
1:52 pm 13:52 Cloudy with Light Rain 73 22.8 71 21.7 94 94 W 22 35 29.72 1007 2 3 0.18 4.57
2:12 pm 14:12 Cloudy with Mist and Fog 73 22.8 72 22.2 96 96 W 17 28 29.71 1006 5 8 0.10 2.54
2:36 pm 14:36 Cloudy with Light Rain 73 22.8 72 22.2 96 96 W 10 17 29.71 1006 5 8 0.10 2.54
2:52 pm 14:52 Cloudy with Rain 73 22.8 72 22.2 96 96 WNW 10 17 29.71 1006 3 5 0.16 4.06
3:00 pm 15:00 Cloudy with Heavy Rain 73 22.8 72 22.2 96 96 WNW 10 17 29.71 1006 3 5 0.03 0.76
3:20 pm 15:20 Cloudy with Heavy Rain 73 22.8 72 22.2 96 96 NW 10 17 29.71 1006 2 3 0.16 4.06
3:23 pm 15:23 Cloudy with Heavy Rain 73 22.8 72 22.2 96 96 WNW 12 19 29.71 1006 2 2 0.18 4.57
3:32 pm 15:32 Cloudy with Heavy Rain 73 22.8 72 22.2 96 96 WNW 13 20 29.68 1005 2 2 0.22 5.59
3:52 pm 15:52 Cloudy with Heavy Rain 69 20.6 68 20 96 96 W 15 24 29.71 1006 2 2 0.42 10.67
3:55 pm 15:55 Cloudy with Heavy Rain 69 20.6 68 20 96 96 WNW 18 30 29.71 1006 1 2 0.06 1.52
4:17 pm 16:17 Cloudy with Heavy Rain 70 21.1 69 20.6 97 97 NW 9 15 29.68 1005 1 2 0.44 11.18
4:29 pm 16:29 Cloudy with Heavy Rain 70 21.1 69 20.6 97 97 W 12 19 29.68 1005 1 2 0.52 13.21
4:38 pm 16:38 Cloudy with Nearby Thunderstorms 70 21.1 69 20.6 97 97 WSW 8 13 29.71 1006 1 2 0.68 17.27
4:43 pm 16:43 Cloudy with Nearby Thunderstorms 69 20.6 69 20.6 100 100 VRB 3 6 29.68 1005 1 2 0.83 21.08
4:48 pm 16:48 Cloudy with Strong Thunderstorms 70 21 70 21 100 100 N N/A 29.68 1005 1 2 1.00 25.40
4:52 pm 16:52 Cloudy with Thunderstorms 69 20.6 69 20.6 100 100 N N/A 29.68 1005 1 2 1.13 28.70
4:57 pm 16:57 Cloudy with Thunderstorms 69 20.6 68 20 96 96 S 3 6 29.68 1005 1 2 0.05 1.27
5:10 pm 17:10 Cloudy with Light Rain 69 20.6 68 20 96 96 N N/A 29.68 1005 4 6 0.06 1.52
5:39 pm 17:39 Cloudy with Rain 69 20.6 69 20.6 100 100 N N/A 29.68 1005 2 3 0.13 3.30
5:46 pm 17:46 Cloudy with Mist and Fog 70 21 70 21 100 100 N N/A 29.68 1005 3 5 0.14 3.56
5:52 pm 17:52 Cloudy with Light Rain 70 21.1 69 20.6 97 97 N N/A 29.68 1005 3 5 0.14 3.56
6:01 pm 18:01 Cloudy with Light Rain 70 21.1 68 20 93 93 N N/A 29.68 1005 5 8 N/A
6:52 pm 18:52 Cloudy with Light Rain 69 20.6 68 20 96 96 ESE 5 7 29.69 1005 6 10 0.12 3.05
7:32 pm 19:32 Cloudy with Light Rain 69 20.6 68 20 96 96 E 8 13 29.68 1005 6 10 0.03 0.76
7:40 pm 19:40 Cloudy with Heavy Rain 69 20.6 68 20 96 96 E 7 11 29.68 1005 3 4 0.05 1.27
7:52 pm 19:52 Cloudy with Rain 68 20 68 20 100 100 E 6 9 29.68 1005 3 4 0.11 2.79
7:54 pm 19:54 Cloudy with Rain 68 20 68 20 100 100 ENE 5 7 29.68 1005 3 4 N/A
8:13 pm 20:13 Cloudy with Light Rain 69 20.6 68 20 96 96 N 7 11 29.68 1005 2 3 N/A
8:43 pm 20:43 Cloudy 69 20.6 68 20 96 96 N 5 7 29.68 1005 2 3 N/A
8:52 pm 20:52 Cloudy 69 20.6 68 20 96 96 N N/A 29.70 1006 2 3 N/A
9:07 pm 21:07 Cloudy 69 20.6 68 20 96 96 N N/A 29.71 1006 2 3 N/A
9:36 pm 21:36 Cloudy 69 20.6 68 20 96 96 SW 3 6 29.74 1007 2 3 N/A
9:52 pm 21:52 Cloudy 69 20.6 68 20 96 96 SW 3 6 29.75 1007 7 11 N/A
10:05 pm 22:05 Cloudy 69 20.6 68 20 96 96 WSW 5 7 29.77 1008 8 13 N/A
10:52 pm 22:52 Cloudy 69 20.6 68 20 96 96 W 8 13 29.80 1009 10 16 0.01 0.25
11:12 pm 23:12 Cloudy 69 20.6 68 20 96 96 W 8 13 29.83 1010 10 16 N/A
11:31 pm 23:31 Mostly Cloudy 69 20.6 68 20 96 96 NW 7 11 29.83 1010 10 16 N/A
11:52 pm 23:52 Mostly Cloudy 68 20 67 19.4 96 96 N N/A 29.84 1011 10 16 N/A

Powered by AerisWeather